Regional Weather Roundup
Issued by NWS

Home | Current Version | Previous Version | Text Only | Print | Product List | Glossary On
Versions: 1 2 3 4 5 6 7 8 9 10 11 12 13 14 15 16 17 18 19 20 21 22 23 24 25 26 27 28
000
ASUS46 KSEW 181910
RWRWA

WASHINGTON REGIONAL WEATHER ROUNDUP
NATIONAL WEATHER SERVICE SEATTLE WA
1200 PM PDT FRI APR 18 2014

NOTE:"FAIR" INDICATES FEW OR NO CLOUDS BELOW 12,000 FEET WITH NO
SIGNIFICANT WEATHER AND/OR OBSTRUCTIONS TO VISIBILITY.

WAZ505-507>509-182000-
SEATTLE, TACOMA, EVERETT, AND VICINITY

CITY           SKY/WX    TMP DP  RH WIND       PRES   REMARKS
EVERETT        CLOUDY    49  37  63 S10       30.13R
BOEING FIELD   MOSUNNY   55  40  56 SE8G16    30.13S
RENTON         PTSUNNY   53  37  54 SE9       30.13S
SEATAC AIRPORT PTSUNNY   53  40  61 S12       30.13S
JBLM-MCCHORD   PTSUNNY   52  40  64 SW9       30.13S
PUYALLUP         N/A     48  37  66 SW3       30.14S
JBLM-FT LEWIS  MOSUNNY   52  39  62 SW9       30.13R
TACOMA NARROWS CLOUDY    52  38  58 SW9       30.13R
$$

WAZ001-503-506-510-514-515-182000-
NORTH INTERIOR

CITY           SKY/WX    TMP DP  RH WIND       PRES   REMARKS
BELLINGHAM     MOSUNNY   51  38  60 S10       30.09R
FRIDAY HARBOR  MOSUNNY   51  39  63 S13       30.11R
EASTSOUND      MOSUNNY   52  32  46 SW5       30.08S
PORT ANGELES   MOSUNNY   51  40  65 N8        30.10R
NAS WHIDBEY    PTSUNNY   54  39  57 SW15      30.13R
BURLINGTON     CLOUDY   N/A N/A N/A S12       30.13R
$$

WAZ020-022-039-040-504-511-512-182000-
SOUTHWEST INTERIOR

CITY           SKY/WX    TMP DP  RH WIND       PRES   REMARKS
SHELTON        PTSUNNY   53  37  54 W15       30.10R
OLYMPIA        PTSUNNY   52  38  58 SW5       30.13F
CHEHALIS       MOCLDY    55  37  50 SW3       30.15S
KELSO          PTSUNNY   54  37  54 CALM      30.19S
VANCOUVER      MOSUNNY   53  36  52 VRB3      30.16S
SCAPPOOSE, OR  PTSUNNY   52  41  66 VRB3      30.16S
PORTLAND, OR   PTSUNNY   53  34  48 N5        30.17S
$$

WAZ021-516-517-182000-
WASHINGTON COAST

CITY           SKY/WX    TMP DP  RH WIND       PRES   REMARKS
FORKS          PTSUNNY   52  41  66 SW10      30.12R
HOQUIAM        MOSUNNY   51  42  71 S7        30.14S
ASTORIA, OR    CLOUDY    53  40  61 N7        30.14S
$$

WAZ019-023-024-040-518-519-182000-
CASCADE MOUNTAINS AND COLUMBIA GORGE

CITY           SKY/WX    TMP DP  RH WIND       PRES   REMARKS
STAMPEDE PASS  NOT AVBL
TROUTDALE, OR  MOSUNNY   55  37  50 CALM      30.16R
THE DALLES, OR MOSUNNY   55  35  47 N17       30.12F
$$

WAZ026-027-041>044-520-521-182000-
EAST SLOPES

CITY           SKY/WX    TMP DP  RH WIND       PRES   REMARKS
OMAK           PTSUNNY   60  20  21 VRB7      29.87R
WENATCHEE      SUNNY     57  18  21 NW20G28   29.96R
ELLENSBURG     SUNNY     52  27  38 W28G35    29.99R
YAKIMA         MOSUNNY   57  21  24 W12G23    30.01S
$$

WAZ028-034-035-182000-
COLUMBIA BASIN

CITY           SKY/WX    TMP DP  RH WIND       PRES   REMARKS
EPHRATA        SUNNY     57  18  21 W16G26    29.95R
MOSES LAKE     SUNNY     58  24  27 W14       29.97R
HANFORD        NOT AVBL
PASCO          MOSUNNY   60  34  37 SW18G32   30.04S
HERMISTON, OR  PTSUNNY   58  34  40 W21G26    30.07S
$$

WAZ036>038-182000-
NORTHEAST WASHINGTON

CITY           SKY/WX    TMP DP  RH WIND       PRES   REMARKS
SPOKANE GEIGER PTSUNNY   46  28  49 SW28G33   29.93R
SPOKANE FELTS  PTSUNNY   48  29  47 W17G28    29.95R
FAIRCHILD AFB  PTSUNNY   46  32  57 SW24G32   29.93S
COEURDALENE,ID CLOUDY    45  30  57 SW21G26   29.95R
DEER PARK      MOSUNNY   51  27  39 SW16      29.91R
$$

WAZ029>033-182000-
SOUTHEAST WASHINGTON

CITY           SKY/WX    TMP DP  RH WIND       PRES   REMARKS
PULLMAN        MOSUNNY   46  31  55 SW23G37   30.00S
LEWISTON, ID   PTSUNNY   56  19  23 MISG      29.99F
WALLA WALLA    MOSUNNY   54  35  48 SW22      30.06S
PENDLETON, OR  MOSUNNY   53  30  41 W20       30.06S
$$



USA.gov is the U.S. government's official web portal to all federal, state and local government web resources and services.